Home   Weather   Victoria   Past weeks

Flag for Canada Past Weather in Victoria, British Columbia, Canada — Yesterday and Last 2 Weeks

Now
52 °F

Partly sunny.


Feels Like: 48 °F
Forecast: 46 / 55 °F
Wind: 10 mph from Southeast

Location: Victoria Int. Airportb. C.

Current Time: Apr 23, 2017 at 6:42:49 pm

Latest Report: Apr 23, 2017 at 6:00 pm


Visibility: 30 mi

Pressure: 29.77 "Hg

Humidity: 77%

Dew Point: 45 °F

Location of VictoriaLocation

Past Weather in Victoria — Graph

°F

Victoria Temperature Yesterday

Maximum temperature yesterday: 54 °F (at 11:00 am)
Minimum temperature yesterday: 46 °F (at 5:00 am)
Average temperature yesterday: 51 °F

High & Low Weather Summary for the Past Weeks

 TemperatureHumidityPressure
High61 °F (Apr 21, 4:00 pm)100% (Apr 11, 4:47 am)30.42 "Hg (Apr 11, 4:47 am)
Low36 °F (Apr 11, 4:47 am)48% (Apr 16, 5:00 pm)29.65 "Hg (Apr 13, 12:30 am)
Average49 °F80%29.98 "Hg
* Reported Apr 8 5:00 pm — Apr 23 5:00 pm, Victoria, Weather by CustomWeather, © 2017

Note: Actual official high and low records may vary slightly from our data, if they occured in-between our weather recording intervals... More about our weather records

Advertising

Victoria Weather History for the Previous 24 Hours

Scroll right to see more
 ConditionsComfort  
Time TempWeatherWind HumidityBarometerVisibility
5:00 pm
Sun, Apr 23
52 °FLight rain. Cloudy.13 mph82%29.78 "Hg30 mi
4:00 pm52 °FOvercast.16 mph77%29.78 "Hg30 mi
3:00 pm52 °FLight rain. Cloudy.13 mph77%29.80 "Hg30 mi
2:00 pm52 °FLight rain. Cloudy.12 mph82%29.82 "Hg20 mi
1:26 pm54 °FLight rain. Cloudy.12 mph77%29.82 "Hg30 mi
1:00 pm52 °FMostly cloudy.9 mph82%29.83 "Hg30 mi
12:00 pm52 °FBroken clouds.10 mph82%29.85 "Hg30 mi
11:00 am50 °FPartly sunny.7 mph94%29.86 "Hg30 mi
10:00 am50 °FBroken clouds.7 mph88%29.86 "Hg30 mi
9:00 am50 °FBroken clouds.6 mph88%29.87 "Hg30 mi
8:00 am48 °FBroken clouds.6 mph94%29.87 "Hg30 mi
7:00 am46 °FPartly sunny.3 mph93%29.88 "Hg30 mi
6:00 am46 °FPartly cloudy.5 mph93%29.88 "Hg30 mi
5:00 am48 °FPartly cloudy.5 mph87%29.90 "Hg30 mi
4:00 am46 °FPartly cloudy.3 mph100%29.90 "Hg15 mi
3:49 am46 °FPartly cloudy.3 mph93%29.90 "Hg15 mi
3:00 am48 °FLight rain. Mostly cloudy.3 mph94%29.91 "Hg15 mi
2:18 am48 °FLight rain. Mostly cloudy.2 mph94%29.93 "Hg30 mi
2:00 am48 °FMostly cloudy.3 mph94%29.92 "Hg30 mi
1:00 am48 °FPassing clouds.3 mph94%29.92 "Hg30 mi
12:00 am48 °FPassing clouds.3 mph87%29.91 "Hg30 mi
11:00 pm
Sat, Apr 22
50 °FMostly cloudy.8 mph82%29.91 "Hg30 mi
10:00 pm52 °FMostly cloudy.12 mph77%29.89 "Hg30 mi
9:00 pm52 °FPartly cloudy.17 mph72%29.89 "Hg20 mi
8:00 pm52 °FBroken clouds.12 mph77%29.88 "Hg30 mi
7:00 pm52 °FPartly sunny.3 mph94%29.86 "Hg30 mi
6:00 pm52 °FPartly sunny.12 mph88%29.84 "Hg30 mi
Weather by CustomWeather, © 2017

See weather overviewHow to use our weather pages